QPF
0.00 0.00 0.00 0.00 0.00 0.00 0.00 0.00 0.00 0.00 0.00 0.00 0.00 0.00 0.00 0.00 0.00 0.00 0.00 0.00 0.00 0.00 0.00 0.00 0.00 0.00 0.00 0.00 0.00 0.00 0.00 0.00 0.00 0.00 0.00 0.00 0.00 0.00 0.00 0.00 0.00 0.02 0.00 0.00 0.03
0.00 0.00 0.00 0.00 0.00 0.00 0.00 0.00 0.00 0.00 0.00 0.00 0.00 0.00 0.00 0.00 0.00 0.00 0.00 0.00 0.00 0.00 0.00 0.00 0.00 0.00 0.00 0.00 0.00 0.00 0.00 0.00 0.00 0.00 0.00 0.00 0.00 0.00 0.00 0.00 0.00 0.00 0.00 0.00 0.01
0.00 0.00 0.00 0.00 0.00 0.00 0.00 0.00 0.00 0.00 0.00 0.00 0.00 0.00 0.00 0.00 0.00 0.00 0.00 0.00 0.00 0.00 0.00 0.00 0.00 0.00 0.00 0.00 0.00 0.00 0.00 0.00 0.00 0.00 0.00 0.00 0.00 0.00 0.00 0.00 0.00 0.01 0.00 0.00 0.00
0.00 0.00 0.00 0.00 0.00 0.00 0.00 0.00 0.00 0.00 0.00 0.00 0.00 0.00 0.00 0.00 0.00 0.00 0.00 0.00 0.00 0.00 0.00 0.00 0.00 0.00 0.00 0.00 0.00 0.00 0.00 0.00 0.00 0.00 0.00 0.00 0.00 0.00 0.00 0.00 0.00 0.01 0.00 0.00 0.00
0.00 0.00 0.00 0.00 0.00 0.00 0.00 0.00 0.00 0.00 0.00 0.00 0.00 0.00 0.00 0.00 0.00 0.00 0.00 0.00 0.00 0.00 0.00 0.00 0.00 0.00 0.00 0.00 0.00 0.00 0.00 0.00 0.00 0.00 0.00 0.00 0.00 0.00 0.00 0.00 0.00 0.00 0.00 0.00 0.00
0.00 0.00 0.00 0.00 0.00 0.00 0.00 0.00 0.00 0.00 0.00 0.00 0.00 0.00 0.00 0.00 0.00 0.00 0.00 0.00 0.00 0.00 0.00 0.00 0.00 0.00 0.00 0.00 0.00 0.00 0.00 0.00 0.00 0.00 0.00 0.00 0.00 0.00 0.00 0.00 0.00 0.00 0.00 0.00 0.00
0.00 0.00 0.00 0.00 0.00 0.00 0.00 0.00 0.00 0.00 0.00 0.00 0.00 0.00 0.00 0.00 0.00 0.00 0.00 0.00 0.00 0.00 0.00 0.00 0.00 0.00 0.00 0.00 0.00 0.00 0.00 0.00 0.00 0.00 0.00 0.00 0.00 0.00 0.00 0.00 0.00 0.00 0.00 0.00 0.00
0.00 0.00 0.00 0.00 0.00 0.00 0.00 0.00 0.00 0.00 0.00 0.00 0.00 0.00 0.00 0.00 0.00 0.00 0.00 0.00 0.00 0.00 0.00 0.00 0.00 0.00 0.00 0.00 0.00 0.00 0.00 0.00 0.00 0.00 0.00 0.00 0.00 0.00 0.00 0.00 0.00 0.00 0.00 0.00 0.00
0.00 0.00 0.00 0.00 0.00 0.00 0.00 0.00 0.00 0.00 0.00 0.00 0.00 0.00 0.00 0.00 0.00 0.00 0.00 0.00 0.00 0.00 0.00 0.00 0.00 0.00 0.00 0.00 0.00 0.00 0.00 0.00 0.00 0.00 0.00 0.00 0.00 0.00 0.00 0.00 0.00 0.00 0.00 0.00 0.00
0.00 0.00 0.00 0.00 0.00 0.00 0.00 0.00 0.00 0.00 0.00 0.00 0.00 0.00 0.00 0.00 0.00 0.00 0.00 0.00 0.00 0.00 0.00 0.00 0.00 0.00 0.00 0.00 0.00 0.00 0.00 0.00 0.00 0.00 0.00 0.00 0.00 0.00 0.00 0.00 0.00 0.00 0.00 0.00 0.00
0.00 0.00 0.00 0.00 0.00 0.00 0.00 0.00 0.00 0.00 0.00 0.00 0.00 0.00 0.00 0.00 0.00 0.00 0.00 0.00 0.00 0.00 0.00 0.00 0.00 0.00 0.00 0.00 0.00 0.00 0.00 0.00 0.00 0.00 0.00 0.00 0.00 0.00 0.00 0.00 0.00 0.00 0.00 0.00 0.00
0.00 0.00 0.00 0.00 0.00 0.00 0.00 0.00 0.00 0.00 0.00 0.00 0.00 0.00 0.00 0.00 0.00 0.00 0.00 0.00 0.00 0.00 0.00 0.00 0.00 0.00 0.00 0.00 0.00 0.00 0.00 0.00 0.00 0.00 0.00 0.00 0.00 0.00 0.00 0.00 0.00 0.00 0.00 0.00 0.00
0.00 0.00 0.00 0.00 0.00 0.00 0.00 0.00 0.00 0.00 0.00 0.00 0.00 0.00 0.00 0.00 0.00 0.00 0.00 0.00 0.00 0.00 0.00 0.00 0.00 0.00 0.00 0.00 0.00 0.00 0.00 0.00 0.00 0.00 0.00 0.00 0.00 0.00 0.00 0.00 0.00 0.00 0.00 0.00 0.00
0.00 0.00 0.00 0.00 0.00 0.00 0.00 0.00 0.00 0.00 0.00 0.00 0.00 0.00 0.00 0.00 0.00 0.00 0.00 0.00 0.00 0.00 0.00 0.00 0.00 0.00 0.00 0.00 0.00 0.00 0.00 0.00 0.00 0.00 0.00 0.00 0.00 0.00 0.00 0.00 0.00 0.00 0.00 0.00 0.00
0.00 0.00 0.00 0.00 0.00 0.00 0.00 0.00 0.00 0.00 0.00 0.00 0.00 0.00 0.00 0.00 0.00 0.00 0.00 0.00 0.00 0.00 0.00 0.00 0.00 0.00 0.00 0.00 0.00 0.00 0.00 0.00 0.00 0.00 0.00 0.00 0.00 0.00 0.00 0.00 0.00 0.00 0.00 0.00 0.00
0.00 0.00 0.00 0.00 0.00 0.00 0.00 0.00 0.00 0.00 0.00 0.00 0.00 0.00 0.00 0.00 0.00 0.00 0.00 0.00 0.00 0.00 0.00 0.00 0.00 0.00 0.00 0.00 0.00 0.00 0.00 0.00 0.00 0.00 0.00 0.00 0.00 0.00 0.00 0.00 0.00 0.00 0.00 0.00 0.00
0.00 0.00 0.00 0.00 0.00 0.00 0.00 0.00 0.00 0.00 0.00 0.00 0.00 0.00 0.00 0.00 0.00 0.00 0.00 0.00 0.00 0.00 0.00 0.00 0.00 0.00 0.00 0.00 0.00 0.00 0.00 0.00 0.00 0.00 0.00 0.00 0.00 0.00 0.00 0.00 0.00 0.00 0.00 0.00 0.00
0.00 0.00 0.00 0.00 0.00 0.00 0.00 0.00 0.00 0.00 0.00 0.00 0.00 0.00 0.00 0.00 0.00 0.00 0.00 0.00 0.00 0.00 0.00 0.00 0.00 0.00 0.00 0.00 0.00 0.00 0.00 0.00 0.00 0.00 0.00 0.00 0.00 0.00 0.00 0.00 0.00 0.00 0.00 0.00 0.00
0.00 0.00 0.00 0.00 0.00 0.00 0.00 0.00 0.00 0.00 0.00 0.00 0.00 0.00 0.00 0.00 0.00 0.00 0.00 0.00 0.00 0.00 0.00 0.00 0.00 0.00 0.00 0.00 0.00 0.00 0.00 0.00 0.00 0.00 0.00 0.00 0.00 0.00 0.00 0.00 0.00 0.00 0.00 0.03 0.06
0.00 0.00 0.00 0.00 0.00 0.00 0.00 0.00 0.00 0.00 0.01 0.00 0.00 0.00 0.00 0.00 0.00 0.00 0.00 0.00 0.00 0.00 0.00 0.00 0.00 0.00 0.00 0.00 0.00 0.00 0.00 0.00 0.00 0.00 0.00 0.00 0.00 0.00 0.00 0.00 0.00 0.00 0.00 0.03 0.23
0.00 0.00 0.00 0.00 0.00 0.00 0.00 0.00 0.00 0.00 0.00 0.00 0.00 0.00 0.00 0.00 0.00 0.00 0.00 0.00 0.00 0.00 0.00 0.00 0.00 0.00 0.00 0.00 0.00 0.00 0.00 0.00 0.00 0.00 0.00 0.00 0.00 0.00 0.00 0.00 0.00 0.00 0.00 0.00 0.01
0.00 0.00 0.00 0.00 0.00 0.00 0.00 0.00 0.00 0.00 0.00 0.00 0.00 0.00 0.00 0.01 0.02 0.00 0.00 0.00 0.00 0.00 0.00 0.00 0.00 0.00 0.00 0.00 0.00 0.00 0.00 0.00 0.00 0.00 0.00 0.00 0.00 0.00 0.00 0.00 0.00 0.00 0.00 0.00 0.00
0.00 0.00 0.00 0.00 0.00 0.00 0.00 0.00 0.00 0.00 0.00 0.00 0.00 0.00 0.00 0.01 0.03 0.00 0.00 0.00 0.00 0.00 0.00 0.00 0.00 0.00 0.00 0.00 0.00 0.00 0.00 0.00 0.00 0.00 0.00 0.00 0.00 0.00 0.00 0.00 0.01 0.03 0.00 0.00 0.00
0.00 0.00 0.00 0.00 0.00 0.00 0.00 0.00 0.00 0.00 0.00 0.00 0.00 0.00 0.00 0.00 0.00 0.00 0.00 0.00 0.00 0.00 0.00 0.00 0.00 0.00 0.00 0.00 0.00 0.00 0.00 0.00 0.00 0.00 0.00 0.00 0.00 0.00 0.00 0.00 0.01 0.01 0.00 0.00 0.00
0.00 0.00 0.00 0.00 0.00 0.00 0.00 0.00 0.00 0.00 0.00 0.00 0.00 0.00 0.00 0.00 0.00 0.00 0.00 0.00 0.00 0.00 0.00 0.00 0.00 0.00 0.00 0.00 0.00 0.00 0.00 0.00 0.00 0.00 0.00 0.00 0.00 0.00 0.00 0.00 0.00 0.00 0.00 0.00 0.00
0.00 0.00 0.00 0.00 0.00 0.00 0.00 0.00 0.00 0.00 0.00 0.00 0.00 0.00 0.00 0.00 0.00 0.00 0.00 0.00 0.00 0.00 0.00 0.00 0.00 0.00 0.00 0.00 0.00 0.00 0.00 0.00 0.00 0.00 0.00 0.00 0.00 0.00 0.00 0.00 0.00 0.00 0.00 0.00 0.00
0.00 0.00 0.00 0.00 0.00 0.00 0.00 0.00 0.00 0.00 0.00 0.00 0.00 0.00 0.00 0.00 0.00 0.00 0.00 0.00 0.00 0.00 0.00 0.00 0.00 0.00 0.00 0.00 0.00 0.00 0.00 0.00 0.00 0.00 0.00 0.00 0.00 0.00 0.00 0.00 0.00 0.00 0.00 0.00 0.00
MSLP
1017.08 1016.82 1016.54 1016.32 1016.01 1015.71 1015.39 1015.11 1014.76 1014.42 1014.08 1013.73 1013.40 1012.96 1012.42 1011.93 1010.78 1010.17 1009.00 1006.78 1006.36 1006.20 1006.18 1005.99 1005.62 1005.57 1005.23 1005.62 1005.32 1005.62 1006.97 1007.69 1007.83 1007.62 1007.48 1007.39 1008.10 1008.91 1009.12 1009.79 1010.14 1010.83 1011.08 1010.98 1011.55
1016.99 1016.77 1016.50 1016.21 1015.88 1015.58 1015.27 1015.01 1014.70 1014.32 1014.07 1013.73 1013.32 1012.98 1012.46 1012.03 1011.25 1009.23 1006.42 1006.02 1005.83 1006.35 1006.10 1006.12 1005.83 1005.61 1005.57 1005.11 1004.66 1005.30 1006.47 1006.37 1006.21 1006.47 1006.57 1006.94 1007.50 1008.37 1009.41 1010.02 1010.51 1011.17 1011.11 1011.07 1011.95
1016.93 1016.73 1016.49 1016.13 1015.80 1015.50 1015.19 1014.87 1014.57 1014.31 1013.99 1013.66 1013.24 1012.82 1012.41 1012.17 1010.97 1007.49 1005.80 1005.89 1005.87 1006.19 1006.34 1006.20 1005.91 1005.91 1005.36 1004.84 1004.51 1004.91 1005.48 1005.47 1005.43 1005.59 1005.76 1006.22 1006.82 1007.22 1008.83 1009.84 1009.66 1010.17 1010.64 1011.24 1012.06
1016.95 1016.67 1016.40 1016.07 1015.68 1015.38 1015.12 1014.81 1014.49 1014.22 1013.97 1013.61 1013.17 1012.66 1012.13 1011.92 1009.78 1006.44 1005.95 1005.98 1006.01 1006.20 1006.16 1005.82 1005.76 1005.75 1005.52 1004.58 1004.19 1004.37 1004.43 1004.51 1004.70 1004.72 1005.07 1005.60 1006.13 1007.00 1007.80 1007.95 1008.20 1009.33 1010.24 1011.12 1011.56
1016.82 1016.53 1016.21 1015.93 1015.57 1015.25 1014.97 1014.70 1014.41 1014.13 1013.89 1013.51 1013.14 1012.65 1011.85 1010.93 1008.29 1005.74 1005.79 1005.97 1005.98 1006.07 1006.01 1006.02 1005.88 1005.77 1005.56 1004.88 1004.52 1004.20 1004.10 1004.06 1003.91 1004.18 1004.68 1004.95 1005.70 1006.27 1007.32 1007.66 1008.54 1009.62 1010.26 1010.58 1011.21
1016.65 1016.34 1016.04 1015.70 1015.39 1015.07 1014.74 1014.44 1014.20 1013.97 1013.76 1013.42 1013.03 1012.71 1012.09 1009.87 1005.99 1005.42 1005.68 1006.02 1005.84 1005.88 1005.80 1005.68 1005.76 1005.26 1004.94 1004.92 1004.67 1003.89 1003.79 1003.76 1003.67 1004.00 1004.42 1004.91 1005.52 1005.97 1007.40 1007.61 1008.41 1008.99 1009.73 1010.02 1010.58
1016.45 1016.11 1015.80 1015.45 1015.11 1014.81 1014.51 1014.22 1013.94 1013.70 1013.51 1013.25 1012.94 1012.64 1011.53 1007.78 1005.74 1005.80 1006.33 1005.70 1005.39 1005.38 1005.72 1005.21 1005.15 1005.29 1005.25 1005.06 1004.57 1004.51 1004.21 1004.01 1003.80 1003.78 1004.30 1004.64 1005.76 1006.14 1006.74 1007.31 1008.08 1008.55 1008.89 1009.49 1009.75
1016.21 1015.86 1015.54 1015.19 1014.84 1014.52 1014.21 1013.86 1013.56 1013.28 1013.13 1012.98 1012.79 1012.39 1010.22 1006.30 1005.85 1006.10 1005.59 1005.55 1005.19 1005.13 1005.45 1005.02 1004.89 1005.08 1005.40 1005.50 1005.30 1005.10 1004.75 1004.54 1004.02 1003.72 1003.83 1004.35 1005.38 1005.90 1006.52 1007.17 1007.88 1008.33 1008.31 1008.87 1009.36
1015.97 1015.56 1015.25 1014.92 1014.60 1014.23 1013.84 1013.39 1013.06 1012.76 1012.71 1012.77 1012.65 1011.84 1009.09 1005.97 1005.71 1005.14 1005.35 1005.43 1005.38 1005.00 1004.86 1004.77 1005.07 1005.84 1006.03 1006.74 1006.72 1005.95 1005.30 1004.78 1004.33 1003.78 1003.82 1004.40 1004.94 1005.45 1006.10 1006.59 1007.23 1007.79 1007.91 1008.20 1008.51
1015.68 1015.26 1014.98 1014.67 1014.40 1013.98 1013.37 1012.78 1012.46 1012.43 1012.26 1012.26 1011.68 1011.36 1008.15 1005.89 1005.04 1004.96 1004.73 1005.24 1005.63 1005.50 1005.73 1005.67 1006.43 1006.95 1007.34 1007.81 1007.90 1006.71 1005.44 1004.61 1004.30 1004.01 1004.02 1004.17 1004.42 1004.94 1005.50 1005.91 1006.39 1006.94 1007.29 1007.54 1007.99
1015.43 1014.96 1014.72 1014.43 1014.21 1013.88 1013.14 1012.37 1012.66 1012.35 1011.67 1010.10 1009.08 1008.33 1006.45 1005.08 1004.55 1004.91 1004.82 1005.21 1005.58 1005.90 1006.42 1006.56 1007.42 1007.60 1006.89 1007.15 1006.75 1006.38 1005.18 1004.74 1003.80 1003.70 1004.01 1004.22 1004.30 1004.90 1004.93 1005.52 1006.06 1006.45 1006.78 1007.07 1007.37
1015.10 1014.76 1014.49 1014.25 1014.08 1013.89 1013.85 1012.73 1010.52 1009.87 1009.62 1008.05 1007.80 1007.24 1005.88 1005.27 1004.99 1004.78 1004.76 1005.59 1005.54 1006.18 1006.59 1007.24 1007.22 1006.21 1006.30 1006.31 1006.06 1005.33 1004.94 1004.57 1004.00 1003.73 1004.23 1004.50 1004.57 1004.20 1004.66 1004.76 1005.08 1005.54 1006.17 1006.50 1007.08
1014.82 1014.47 1014.23 1014.06 1013.88 1013.93 1013.03 1010.74 1008.95 1009.03 1009.18 1007.02 1006.42 1005.97 1005.14 1004.58 1004.60 1004.48 1004.91 1005.27 1005.90 1006.48 1006.80 1007.21 1005.81 1005.32 1005.58 1005.48 1004.91 1004.89 1004.97 1004.74 1004.63 1004.40 1004.46 1004.65 1004.86 1004.47 1003.91 1003.94 1004.65 1004.83 1005.09 1005.84 1006.24
1014.49 1014.22 1014.01 1013.84 1014.24 1012.91 1011.58 1008.37 1009.03 1009.40 1009.27 1006.61 1005.54 1004.29 1004.27 1004.11 1004.07 1003.66 1004.12 1004.89 1005.71 1005.96 1006.16 1006.27 1004.80 1005.00 1004.65 1004.32 1004.40 1004.72 1004.43 1004.66 1004.98 1005.44 1005.70 1005.51 1006.10 1004.91 1003.94 1003.90 1004.01 1004.51 1005.21 1005.46 1006.03
1014.14 1013.92 1013.81 1013.90 1013.76 1012.25 1009.22 1008.54 1008.87 1009.10 1008.18 1005.43 1004.58 1002.86 1003.35 1004.12 1003.68 1003.28 1003.41 1004.43 1004.99 1005.50 1006.12 1005.43 1004.84 1004.09 1003.93 1003.76 1003.86 1004.32 1004.24 1004.95 1005.31 1005.90 1006.45 1006.47 1006.56 1005.14 1004.62 1004.19 1003.99 1004.17 1004.52 1004.86 1005.17
1013.73 1013.56 1013.61 1013.71 1013.56 1010.38 1009.15 1008.56 1008.81 1009.14 1006.85 1004.92 1003.49 1003.44 1004.08 1004.16 1003.88 1003.77 1003.86 1004.03 1004.37 1005.19 1005.45 1005.19 1004.18 1003.71 1003.21 1003.06 1003.40 1003.78 1004.42 1005.77 1006.61 1007.42 1008.00 1007.43 1006.97 1006.12 1005.28 1004.33 1003.78 1003.47 1003.51 1004.19 1004.99
1013.32 1013.25 1013.44 1012.51 1011.08 1009.52 1008.71 1008.81 1009.48 1008.62 1005.84 1004.78 1003.98 1003.71 1004.12 1004.43 1004.20 1004.13 1004.18 1004.49 1005.01 1005.74 1006.00 1004.92 1003.91 1003.20 1002.96 1003.26 1003.44 1004.08 1006.08 1007.50 1008.64 1009.08 1008.68 1007.38 1007.12 1006.34 1005.23 1004.63 1005.17 1004.84 1004.92 1005.58 1005.29
1012.88 1012.91 1012.44 1011.22 1010.09 1009.96 1009.36 1009.65 1009.23 1007.46 1005.99 1004.51 1003.91 1004.17 1004.47 1004.41 1004.38 1004.35 1004.54 1004.95 1005.08 1005.80 1006.18 1005.97 1004.24 1003.33 1002.87 1003.10 1003.71 1004.60 1006.22 1007.86 1008.77 1009.86 1008.88 1007.67 1007.45 1007.85 1007.12 1006.01 1005.98 1005.68 1005.92 1007.14 1008.22
1012.51 1012.58 1012.04 1009.09 1009.83 1010.49 1010.41 1010.07 1008.45 1006.73 1005.21 1004.42 1004.13 1004.58 1004.53 1004.27 1004.40 1004.46 1004.51 1004.61 1004.69 1005.10 1006.07 1005.49 1004.57 1003.28 1002.80 1002.85 1003.67 1004.57 1005.67 1006.35 1007.98 1009.22 1009.22 1008.81 1008.03 1007.51 1007.61 1007.17 1007.00 1006.93 1006.52 1007.53 1009.17
1012.08 1011.62 1009.88 1007.66 1008.74 1009.71 1010.26 1009.64 1007.53 1005.66 1004.01 1003.60 1004.61 1004.27 1004.61 1004.07 1004.61 1004.62 1004.53 1004.29 1004.49 1004.56 1004.45 1005.57 1005.45 1004.85 1003.70 1003.20 1003.77 1004.40 1004.90 1006.49 1008.17 1009.56 1010.29 1009.75 1009.10 1008.78 1008.92 1008.69 1008.34 1008.19 1007.94 1008.89 1010.19
1011.62 1010.56 1007.67 1007.36 1008.22 1009.82 1010.23 1008.79 1006.65 1004.70 1004.11 1003.84 1003.57 1004.28 1004.42 1004.45 1004.26 1004.55 1004.68 1004.43 1004.24 1004.77 1004.70 1005.92 1006.55 1006.27 1005.22 1005.44 1005.45 1005.22 1005.82 1006.78 1008.05 1009.11 1010.26 1010.79 1010.32 1009.44 1009.86 1009.41 1009.16 1009.25 1009.42 1010.03 1010.31
1011.21 1010.16 1007.62 1007.30 1009.02 1009.62 1009.40 1007.59 1006.02 1004.40 1003.38 1003.01 1002.77 1003.85 1003.73 1004.04 1004.66 1004.71 1004.97 1004.56 1004.46 1004.41 1006.01 1006.80 1007.71 1008.10 1007.22 1006.48 1005.93 1006.39 1007.15 1007.81 1009.04 1009.82 1010.17 1010.41 1010.41 1009.84 1010.84 1010.47 1010.06 1010.57 1010.93 1011.08 1010.96
1011.36 1009.82 1007.78 1007.58 1009.01 1009.58 1008.40 1007.12 1005.93 1004.54 1003.85 1003.20 1003.40 1003.51 1003.70 1004.85 1005.76 1005.18 1005.06 1005.08 1004.73 1005.29 1006.47 1007.30 1008.66 1009.32 1008.08 1007.65 1006.68 1007.26 1007.67 1008.04 1008.89 1009.68 1010.76 1011.13 1011.27 1010.61 1011.28 1011.22 1011.15 1011.23 1011.41 1011.15 1011.30
1011.34 1010.44 1009.26 1008.69 1008.74 1008.82 1008.47 1006.86 1005.42 1003.58 1003.28 1003.44 1003.85 1003.93 1004.43 1005.44 1005.87 1005.92 1005.74 1005.81 1005.79 1006.27 1006.90 1007.62 1009.50 1010.26 1010.24 1009.82 1009.10 1008.47 1007.99 1008.26 1009.23 1009.96 1010.81 1011.19 1011.90 1011.89 1011.92 1011.88 1012.15 1011.96 1011.59 1011.38 1011.64
1011.52 1011.34 1010.30 1009.77 1009.29 1008.70 1008.10 1006.81 1005.69 1004.10 1003.23 1003.68 1004.50 1005.09 1005.20 1006.38 1006.72 1007.07 1006.77 1006.77 1006.84 1007.05 1007.53 1008.50 1010.31 1010.50 1010.45 1009.97 1009.28 1008.86 1008.40 1008.42 1008.92 1009.06 1010.11 1011.23 1011.50 1011.75 1011.87 1011.99 1012.01 1012.04 1011.97 1011.71 1011.67
1012.55 1012.18 1011.14 1010.59 1009.30 1008.07 1007.48 1006.33 1005.71 1004.82 1004.46 1005.29 1005.89 1006.29 1006.06 1007.49 1007.64 1007.77 1007.56 1007.65 1007.78 1007.70 1008.12 1009.03 1010.40 1010.81 1010.94 1010.06 1009.73 1009.27 1008.74 1008.39 1008.89 1009.55 1010.66 1011.11 1011.87 1011.92 1012.00 1011.86 1011.97 1011.88 1011.87 1011.93 1011.90
1012.95 1012.12 1011.91 1010.87 1009.68 1008.49 1007.82 1006.58 1006.40 1005.52 1005.87 1005.77 1006.15 1006.61 1007.01 1007.48 1007.50 1007.39 1007.47 1007.52 1007.59 1008.00 1008.87 1009.71 1010.76 1011.98 1012.11 1011.13 1010.47 1010.13 1009.74 1009.37 1009.60 1009.74 1010.50 1011.46 1011.88 1012.07 1012.24 1012.09 1012.09 1012.25 1012.19 1012.16 1012.02
Thickness
5744 5746 5749 5752 5755 5758 5761 5763 5767 5769 5772 5775 5779 5784 5791 5797 5809 5816 5818 5844 5853 5859 5861 5860 5860 5858 5858 5845 5852 5847 5796 5781 5792 5794 5800 5824 5805 5813 5819 5805 5805 5797 5789 5802 5810
5743 5746 5749 5752 5755 5759 5761 5764 5766 5769 5772 5775 5779 5783 5789 5795 5803 5812 5848 5855 5859 5856 5854 5846 5840 5847 5836 5843 5849 5827 5793 5808 5825 5820 5813 5822 5815 5812 5801 5797 5794 5791 5799 5805 5802
5742 5745 5748 5752 5755 5759 5762 5764 5766 5769 5772 5775 5779 5783 5788 5793 5798 5820 5853 5855 5857 5857 5853 5849 5847 5840 5831 5844 5844 5833 5806 5828 5831 5834 5836 5826 5822 5831 5800 5787 5802 5795 5798 5800 5797
5740 5744 5747 5751 5755 5759 5762 5764 5767 5769 5772 5776 5779 5783 5790 5794 5776 5836 5850 5852 5854 5855 5849 5845 5840 5827 5822 5828 5847 5823 5840 5839 5838 5844 5838 5826 5835 5820 5816 5817 5825 5819 5811 5802 5800
5739 5743 5747 5751 5756 5759 5762 5765 5768 5770 5773 5777 5780 5783 5792 5788 5801 5848 5851 5852 5854 5852 5841 5836 5829 5827 5817 5830 5837 5830 5839 5846 5849 5847 5842 5843 5830 5825 5821 5827 5824 5817 5809 5807 5802
5739 5743 5746 5751 5755 5760 5764 5767 5770 5773 5775 5779 5782 5785 5788 5779 5844 5852 5852 5851 5851 5847 5842 5845 5836 5841 5835 5830 5829 5847 5847 5845 5848 5843 5843 5831 5831 5832 5820 5827 5819 5816 5809 5810 5803
5739 5743 5746 5751 5756 5761 5765 5769 5773 5776 5778 5781 5784 5788 5788 5803 5848 5849 5848 5851 5857 5852 5840 5853 5854 5840 5838 5827 5845 5840 5829 5837 5843 5846 5838 5841 5817 5816 5830 5829 5817 5816 5817 5813 5812
5739 5743 5747 5751 5757 5762 5767 5772 5776 5780 5782 5785 5787 5790 5789 5845 5850 5847 5854 5851 5859 5861 5853 5858 5861 5848 5841 5843 5833 5822 5825 5800 5832 5846 5848 5838 5795 5828 5833 5826 5816 5817 5820 5815 5812
5738 5743 5747 5752 5757 5763 5769 5776 5781 5785 5787 5788 5789 5792 5793 5848 5840 5855 5855 5843 5849 5856 5859 5864 5854 5832 5831 5805 5790 5806 5788 5803 5817 5846 5844 5834 5813 5832 5837 5833 5822 5820 5821 5821 5820
5738 5743 5747 5752 5758 5764 5773 5781 5786 5788 5791 5792 5797 5785 5815 5825 5846 5852 5861 5852 5839 5841 5834 5834 5816 5804 5799 5783 5753 5782 5799 5816 5806 5832 5838 5832 5829 5834 5839 5837 5833 5829 5828 5827 5822
5737 5743 5747 5752 5758 5765 5775 5784 5781 5783 5791 5796 5804 5807 5828 5847 5858 5846 5854 5844 5840 5829 5800 5815 5791 5777 5798 5799 5804 5801 5815 5810 5831 5840 5830 5824 5830 5832 5842 5838 5831 5831 5831 5830 5828
5737 5742 5746 5752 5758 5764 5768 5778 5794 5803 5787 5818 5820 5821 5837 5845 5826 5838 5853 5823 5822 5800 5812 5796 5777 5812 5815 5816 5810 5820 5813 5807 5827 5843 5831 5826 5823 5837 5840 5842 5840 5839 5838 5837 5833
5735 5741 5747 5752 5759 5763 5771 5790 5813 5813 5786 5814 5824 5823 5833 5844 5827 5828 5839 5826 5811 5799 5800 5783 5808 5828 5818 5812 5816 5814 5808 5805 5808 5830 5834 5827 5808 5820 5844 5848 5845 5851 5852 5848 5842
5734 5741 5746 5752 5756 5769 5779 5813 5810 5810 5759 5795 5814 5830 5839 5841 5822 5851 5848 5830 5811 5796 5803 5797 5827 5819 5817 5820 5818 5798 5826 5825 5822 5804 5778 5821 5763 5807 5837 5837 5845 5844 5842 5844 5843
5733 5740 5745 5750 5755 5771 5800 5811 5812 5802 5744 5813 5815 5860 5845 5823 5832 5835 5854 5830 5805 5805 5809 5798 5814 5816 5815 5820 5829 5810 5835 5825 5823 5809 5801 5801 5777 5801 5825 5830 5838 5839 5842 5848 5848
5733 5740 5745 5750 5755 5786 5801 5810 5805 5755 5743 5799 5828 5819 5813 5820 5824 5833 5831 5841 5835 5814 5813 5808 5835 5833 5828 5841 5840 5844 5831 5806 5801 5784 5764 5792 5785 5786 5804 5831 5842 5850 5852 5852 5848
5734 5740 5745 5757 5773 5792 5805 5797 5746 5734 5802 5796 5803 5815 5807 5802 5810 5814 5808 5805 5790 5778 5778 5803 5816 5838 5846 5827 5833 5832 5787 5748 5758 5745 5757 5786 5785 5793 5830 5841 5828 5828 5837 5840 5850
5735 5741 5751 5765 5781 5787 5794 5765 5742 5776 5779 5813 5812 5807 5793 5805 5806 5809 5801 5791 5805 5795 5773 5770 5775 5821 5842 5828 5814 5816 5791 5750 5755 5739 5759 5793 5778 5782 5814 5829 5830 5833 5836 5826 5817
5737 5741 5750 5780 5781 5782 5772 5736 5752 5772 5796 5801 5807 5792 5791 5806 5805 5806 5799 5797 5808 5804 5775 5777 5789 5834 5841 5845 5833 5817 5795 5808 5779 5773 5765 5775 5792 5812 5812 5815 5817 5819 5831 5820 5805
5739 5746 5761 5790 5788 5779 5757 5744 5771 5800 5815 5812 5783 5798 5786 5801 5792 5796 5796 5814 5813 5824 5825 5804 5783 5812 5830 5845 5838 5827 5829 5786 5767 5756 5743 5759 5771 5770 5785 5792 5803 5806 5813 5809 5802
5741 5743 5776 5789 5788 5762 5741 5751 5785 5812 5817 5799 5799 5785 5789 5793 5806 5803 5798 5811 5824 5818 5821 5805 5789 5791 5814 5801 5792 5793 5786 5790 5782 5766 5736 5731 5744 5787 5779 5790 5797 5799 5803 5797 5803
5739 5730 5777 5788 5748 5747 5748 5774 5796 5805 5821 5819 5824 5798 5804 5806 5797 5793 5789 5805 5824 5823 5796 5801 5772 5761 5786 5806 5819 5807 5792 5775 5752 5764 5755 5740 5745 5793 5776 5780 5790 5786 5790 5793 5794
5733 5740 5775 5780 5732 5739 5761 5776 5790 5797 5807 5812 5806 5810 5813 5789 5774 5793 5799 5811 5817 5807 5795 5797 5761 5738 5761 5777 5796 5782 5787 5786 5770 5758 5747 5732 5737 5779 5772 5771 5777 5776 5779 5784 5784
5734 5727 5747 5759 5757 5760 5758 5766 5778 5813 5812 5814 5809 5809 5801 5786 5782 5783 5788 5799 5807 5803 5802 5791 5752 5741 5724 5748 5761 5764 5778 5782 5762 5741 5742 5743 5739 5752 5760 5761 5762 5766 5772 5778 5776
5735 5733 5745 5733 5748 5755 5761 5768 5771 5788 5814 5806 5794 5789 5794 5766 5768 5762 5777 5782 5791 5795 5796 5775 5744 5760 5760 5763 5768 5770 5773 5775 5770 5768 5753 5743 5742 5749 5754 5756 5759 5762 5763 5764 5761
5722 5724 5734 5733 5750 5759 5755 5774 5777 5782 5787 5778 5769 5776 5776 5759 5768 5760 5768 5767 5768 5783 5781 5770 5744 5750 5741 5760 5756 5759 5766 5771 5769 5758 5747 5748 5737 5751 5752 5753 5754 5757 5755 5751 5750
5726 5734 5729 5733 5743 5748 5750 5768 5765 5779 5777 5781 5778 5769 5763 5771 5782 5784 5783 5777 5779 5772 5761 5755 5740 5725 5721 5739 5744 5729 5742 5749 5749 5753 5746 5727 5736 5743 5740 5743 5742 5739 5740 5739 5740